Location: Béaulencourt
(50.0796°N, 2.8795°E)
Time: 00:22:17
(UTC+00:00)

Cosmos 1470 Rocket - Pass Details

Date: 20 January 2026
Orbit: 597 x 626 km, 82.5° (Epoch: 9 February)

Event Time Altitude Azimuth Distance (km) Brightness Sun altitude
Rises 06:20:18 0° 196° (SSW) 2,836 7.0 -12.1°
Reaches altitude 10° 06:22:31 10° 199° (SSW) 1,936 6.1 -11.7°
Maximum altitude 06:26:46 67° 282° (WNW) 655 3.4 -11.1°
Drops below altitude 10° 06:31:03 10° 5° (N) 1,949 6.0 -10.4°
Sets 06:33:17 0° 8° (N) 2,857 6.9 -10.1°
